Simultaneous Nadir Overpasses (SNOs) Predictions

Prediction of SNOs between GOES-16 and METOP-B Satellite Orbit:

Table of predicted SNOs for the next 14.0 days since TLE Epoch: 2/15/2019
Index Date Time (GOES-16) GOES-16 Lat,Lon METOP-B Lat,Lon Distance(km) Time Diff (sec)
1 02/16/2019 02:34:41 -0.02, -75.19 -0.22, -76.07 99.56 80
2 02/17/2019 02:11:23 -0.02, -75.19 0.90, -71.08 469.26 80
3 02/18/2019 14:30:16 0.01, -75.20 0.10, -75.64 49.38 80
4 02/21/2019 02:31:18 -0.01, -75.20 -0.03, -75.24 4.08 80
5 02/23/2019 14:29:33 0.02, -75.24 -0.10, -74.81 48.82 80
6 02/25/2019 02:48:33 -0.01, -75.24 -0.97, -79.40 473.98 80
7 02/26/2019 02:25:15 -0.01, -75.26 0.16, -74.41 96.36 80
8 02/27/2019 14:44:08 0.01, -75.29 0.84, -78.97 420.34 80
9 02/28/2019 14:26:09 0.00, -75.30 -0.29, -73.98 150.37 80




NCC Satellite Simultaneous Nadir Overpasses (SNOs) Prediction Service
